Platteville, WI

6:27 PM CDT on July 23, 2017 (GMT -0500)
Platteville Municipal

Weather History for KPVB - April, 2012

Change the Weather History Date:

Thursday, April 19, 2012

  Actual Average (KDBQ) Record (KDBQ)
Temperature  
Mean Temperature 44 °F -  
Max Temperature 51 °F 59 °F 83 °F (1985)
Min Temperature 37 °F 41 °F 22 °F (1988)
Degree Days  
Heating Degree Days 21    
Moisture  
Dew Point 44 °F    
Average Humidity 85    
Maximum Humidity 100    
Minimum Humidity 71    
Precipitation  
Precipitation 0.53 in - - ()
Sea Level Pressure  
Sea Level Pressure 29.88 in    
Wind  
Wind Speed 10 mph (NE)    
Max Wind Speed 22 mph    
Max Gust Speed 31 mph    
Visibility 9 miles    
Events      
Averages and records for this station are not official NWS values.
T = Trace of Precipitation, MM = Missing Value Source: NWS Daily Summary

Daily Weather History Graph

Daily Weather History Graph

Search for Another Location

Airport or City:

Trip Planner

Search our weather history database for the weather conditions in past years. The results will help you decide how hot, cold, wet, or windy it might be!

Date:

Astronomy

Apr. 19, 2012 Rise Set
Actual Time 6:13 AM CDT 7:49 PM CDT
Civil Twilight 5:43 AM CDT 8:18 PM CDT
Nautical Twilight 5:07 AM CDT 8:54 PM CDT
Astronomical Twilight 4:29 AM CDT 9:33 PM CDT
Moon 5:08 AM CDT (4/19) 6:36 PM CDT (4/19)
Length of Visible Light 14h 35m
Length of Day
13h 35m
Waning Crescent, 2% of the Moon is Illuminated
Apr 19
Waning Crescent
Apr 21
New
Apr 29
First Quarter
May 5
Full
May 12
Last Quarter

Hourly Weather History & Observations

Time (CDT) Temp. Windchill Dew Point Humidity Pressure Visibility Wind Dir Wind Speed Gust Speed Precip Events Conditions
12:15 AM 51.8 °F - 42.8 °F 71% 29.94 in 10.0 mi North 3.5 mph - N/A   Clear
12:35 AM 51.8 °F - 42.8 °F 71% 29.94 in 10.0 mi North 3.5 mph - N/A   Clear
12:55 AM 51.8 °F - 42.8 °F 71% 29.94 in 10.0 mi Calm Calm - N/A   Clear
1:15 AM 50.0 °F - 42.8 °F 76% 29.95 in 10.0 mi Calm Calm - N/A   Clear
1:35 AM 50.0 °F - 41.0 °F 71% 29.95 in 10.0 mi North 4.6 mph - N/A   Scattered Clouds
1:55 AM 48.2 °F - 41.0 °F 76% 29.94 in 10.0 mi North 5.8 mph - N/A   Scattered Clouds
2:15 AM 50.0 °F - 42.8 °F 76% 29.94 in 10.0 mi NNE 4.6 mph - N/A   Scattered Clouds
2:35 AM 51.8 °F - 42.8 °F 71% 29.94 in 10.0 mi NE 4.6 mph - N/A   Mostly Cloudy
2:55 AM 51.8 °F - 42.8 °F 71% 29.94 in 10.0 mi NNE 6.9 mph - N/A   Overcast
3:15 AM 50.0 °F - 44.6 °F 82% 29.94 in 7.0 mi NE 6.9 mph - 0.03 in   Mostly Cloudy
3:35 AM 50.0 °F - 44.6 °F 82% 29.94 in 10.0 mi NNE 5.8 mph - 0.03 in   Overcast
4:15 AM 51.8 °F - 44.6 °F 76% 29.96 in 10.0 mi North 9.2 mph - N/A   Overcast
4:35 AM 51.8 °F - 44.6 °F 76% 29.95 in 10.0 mi North 10.4 mph - N/A   Overcast
4:55 AM 50.0 °F - 44.6 °F 82% 29.95 in 10.0 mi NNE 11.5 mph - N/A   Overcast
5:15 AM 50.0 °F - 44.6 °F 82% 29.95 in 10.0 mi North 9.2 mph - N/A   Overcast
5:35 AM 50.0 °F - 44.6 °F 82% 29.96 in 10.0 mi NNE 10.4 mph - N/A   Overcast
5:55 AM 50.0 °F - 42.8 °F 76% 29.97 in 10.0 mi NNE 9.2 mph - N/A   Overcast
6:15 AM 48.2 °F - 42.8 °F 82% 29.97 in 10.0 mi NE 6.9 mph - N/A   Mostly Cloudy
6:35 AM 48.2 °F - 42.8 °F 82% 29.98 in 10.0 mi NNE 9.2 mph - N/A   Mostly Cloudy
6:55 AM 48.2 °F - 42.8 °F 82% 29.99 in 10.0 mi NE 8.1 mph - N/A   Mostly Cloudy
7:55 AM 48.2 °F - 42.8 °F 82% 29.98 in 10.0 mi NNE 9.2 mph - N/A   Overcast
8:35 AM 50.0 °F - 42.8 °F 76% 29.96 in 10.0 mi ENE 15.0 mph 18.4 mph N/A   Overcast
8:55 AM 50.0 °F - 42.8 °F 76% 29.92 in 10.0 mi ENE 20.7 mph 24.2 mph N/A   Overcast
9:15 AM 51.8 °F - 44.6 °F 76% 29.93 in 10.0 mi ENE 16.1 mph 24.2 mph N/A   Mostly Cloudy
9:35 AM 51.8 °F - 44.6 °F 76% 29.94 in 10.0 mi ENE 13.8 mph - N/A   Mostly Cloudy
9:55 AM 51.8 °F - 44.6 °F 76% 29.94 in 10.0 mi ENE 13.8 mph - N/A   Overcast
10:15 AM 51.8 °F - 44.6 °F 76% 29.93 in 10.0 mi ENE 12.7 mph - N/A   Overcast
10:35 AM 51.8 °F - 44.6 °F 76% 29.93 in 10.0 mi NE 11.5 mph 17.3 mph N/A   Overcast
10:55 AM 51.8 °F - 44.6 °F 76% 29.93 in 10.0 mi ENE 13.8 mph - N/A   Overcast
11:15 AM 51.8 °F - 44.6 °F 76% 29.93 in 10.0 mi East 13.8 mph 17.3 mph N/A   Overcast
11:35 AM 51.8 °F - 44.6 °F 76% 29.92 in 10.0 mi ENE 15.0 mph 18.4 mph N/A   Overcast
11:55 AM 51.8 °F - 44.6 °F 76% 29.91 in 10.0 mi ENE 17.3 mph - N/A   Overcast
12:15 PM 50.0 °F - 44.6 °F 82% 29.95 in 7.0 mi ESE 8.1 mph 15.0 mph N/A   Overcast
12:35 PM 50.0 °F - 46.4 °F 87% 29.90 in 5.0 mi ENE 13.8 mph - 0.09 in   Overcast
12:55 PM 50.0 °F - 46.4 °F 87% 29.91 in 2.0 mi NE 10.4 mph - 0.18 in   Overcast
1:15 PM 48.2 °F - 46.4 °F 93% 29.93 in 2.5 mi NNE 6.9 mph - 0.12 in   Overcast
1:35 PM 48.2 °F - 46.4 °F 93% 29.92 in 4.0 mi NNE 8.1 mph - 0.17 in   Overcast
1:55 PM 48.2 °F - 46.4 °F 93% 29.91 in 7.0 mi NE 9.2 mph - 0.18 in   Overcast
2:15 PM 48.2 °F - 46.4 °F 93% 29.88 in 5.0 mi ENE 17.3 mph - N/A   Overcast
2:35 PM 48.2 °F - 46.4 °F 93% 29.85 in 10.0 mi ENE 19.6 mph 28.8 mph N/A   Overcast
2:55 PM 48.2 °F - 46.4 °F 93% 29.84 in 10.0 mi ENE 17.3 mph 25.3 mph N/A   Overcast
3:35 PM 48.2 °F - 46.4 °F 93% 29.85 in 7.0 mi East 16.1 mph 20.7 mph N/A   Overcast
3:55 PM 48.2 °F - 46.4 °F 93% 29.83 in 7.0 mi ENE 16.1 mph - 0.01 in   Overcast
4:15 PM 48.2 °F - 46.4 °F 93% 29.83 in 10.0 mi ENE 12.7 mph - N/A   Overcast
4:35 PM 46.4 °F 39.5 °F 46.4 °F 100% 29.82 in 7.0 mi East 17.3 mph - 0.03 in   Overcast
4:55 PM 46.4 °F 39.2 °F 46.4 °F 100% 29.77 in 7.0 mi ENE 18.4 mph 24.2 mph 0.04 in   Overcast
5:15 PM 46.4 °F 39.0 °F 46.4 °F 100% 29.77 in 10.0 mi ENE 19.6 mph 26.5 mph N/A   Overcast
5:35 PM 46.4 °F 39.2 °F 46.4 °F 100% 29.76 in 10.0 mi ENE 18.4 mph 26.5 mph N/A   Overcast
5:55 PM 46.4 °F 39.0 °F 44.6 °F 93% 29.75 in 10.0 mi ENE 19.6 mph 25.3 mph N/A   Overcast
6:15 PM 46.4 °F 39.2 °F 44.6 °F 93% 29.75 in 10.0 mi ENE 18.4 mph 21.9 mph N/A   Overcast
6:35 PM 44.6 °F 36.1 °F 44.6 °F 100% 29.74 in 10.0 mi ENE 21.9 mph 28.8 mph N/A   Overcast
6:55 PM 44.6 °F 36.4 °F 42.8 °F 93% 29.74 in 10.0 mi East 20.7 mph 27.6 mph N/A   Overcast
7:15 PM 44.6 °F 36.4 °F 42.8 °F 93% 29.72 in 10.0 mi East 20.7 mph - N/A   Overcast
7:55 PM 42.8 °F 37.5 °F 42.8 °F 100% 29.78 in 10.0 mi NNE 9.2 mph - N/A   Overcast
8:15 PM 42.8 °F 35.1 °F 42.8 °F 100% 29.77 in 7.0 mi NE 16.1 mph 21.9 mph 0.01 in   Overcast
8:35 PM 42.8 °F 35.1 °F 41.0 °F 93% 29.76 in 10.0 mi ENE 16.1 mph 24.2 mph 0.01 in   Overcast
8:55 PM 42.8 °F 36.2 °F 41.0 °F 93% 29.78 in 10.0 mi ENE 12.7 mph 23.0 mph 0.01 in   Overcast
9:35 PM 41.0 °F 34.3 °F 41.0 °F 100% 29.79 in 10.0 mi NNE 11.5 mph 19.6 mph N/A   Overcast
9:55 PM 41.0 °F 31.9 °F 39.2 °F 93% 29.78 in 10.0 mi NNE 19.6 mph 24.2 mph N/A   Overcast
10:35 PM 41.0 °F 33.1 °F 37.4 °F 87% 29.77 in 10.0 mi NNE 15.0 mph 23.0 mph 0.01 in   Overcast
10:55 PM 39.2 °F 29.6 °F 37.4 °F 93% 29.76 in 10.0 mi NNE 19.6 mph 31.1 mph 0.02 in   Overcast
11:15 PM 37.4 °F 28.2 °F 37.4 °F 100% 29.75 in 10.0 mi NE 16.1 mph 21.9 mph 0.02 in   Overcast
11:35 PM 37.4 °F 27.5 °F 35.6 °F 93% 29.75 in 10.0 mi NE 18.4 mph 24.2 mph 0.02 in   Overcast
11:55 PM 37.4 °F 28.9 °F 35.6 °F 93% 29.75 in 7.0 mi NE 13.8 mph 23.0 mph 0.06 in   Overcast